Skip Navigation Links
NOAA logo - Click to go to the NOAA homepage
NOAA's National Weather Service
Alaska Aviation Weather Unit
  NWS logo - Click to go to the NWS homepage
Left Navbar Graphic     22 AKDT = 06 GMT

   
NOAA is celebrating 200 years of science, service, and stewardship. Visit the NOAA 200th celebration Web site to learn more.
USA.gov is the U.S. Government's official Web portal to all Federal, state and local government Web resources and services.
Facebook
NWS on Facebook

Important Change Regarding the AAWU Web Presence

 

Over the last several months, the AAWU has been working to navigate its webpages to a nationally supported server. Security, as well as other needs, have necessitated the change.  In the process, we have made an effort to enhance the functionality of our website, as well as some of our products. As of June 20, 2017, aawu.arh.noaa.gov will be discontinued. The new AAWU web address is weather.gov/aawu. It is now live and will run in-parallel with the old site until it is discontinued. Please send any feedback or questions regarding the new webpages to nws.ar.aawu.webauthors@noaa.gov.  Thank you for your patience during this time of transition.
AAWU Home :: Display TAF Add Bookmark
PAIM 280016Z AUTO 10006KT 10SM BKN041 07/M01 A3003=

METAR PAIM 280055Z AUTO 12001KT 10SM BKN045 08/M01 A3002=

METAR PAIM 280155Z AUTO 14007KT 10SM FEW085 09/M02 A3000=

METAR PAIM 280255Z AUTO 05010G18KT 360V110 10SM SCT050 08/01 A3000=

METAR PAIM 280355Z AUTO 06008KT 030V100 10SM FEW075 SCT090 08/01
     A2999=

METAR PAIM 280455Z AUTO 28001KT 10SM FEW090 08/00 A2999=

METAR PAIM 280555Z AUTO 00000KT 10SM BKN060 08/M02 A3000=


NOAA's National Weather Service
Alaska Aviation Weather Unit
6930 Sand Lake Road
Anchorage, AK 99502-1845
Disclaimer
Credits
Glossary
Privacy Policy
About Us
Career Opportunities
Contact AAWU Internet Services Site last modified: April, 17th 2012